Home   Weather   Alfeld (Leine)   Past weeks

Flag for Germany Past Weather in Alfeld (Leine), Lower Saxony, Germany — Yesterday and Last 2 Weeks

Now
37 °F

Overcast.


Feels Like: 31 °F
Forecast: 34 / 44 °F
Wind: 8 mph from Southwest

Location: Braunschweig Wolfsburg

Current Time: Dec 7, 2016 at 1:42:58 pm

Latest Report: Dec 7, 2016 at 12:50 pm


Visibility: N/A

Pressure: 30.42 "Hg

Humidity: 75%

Dew Point: 30 °F

Location of Alfeld (Leine)Location

Past Weather in Alfeld (Leine) — Graph

°F

Alfeld (Leine) Temperature Yesterday

Maximum temperature yesterday: 36 °F (at 2:50 pm)
Minimum temperature yesterday: 21 °F (at 6:50 am)
Average temperature yesterday: 31 °F

High & Low Weather Summary for the Past Weeks

 TemperatureHumidityPressure
High57 °F (Nov 22, 12:20 pm)100% (Nov 23, 6:50 pm)30.57 "Hg (Nov 23, 6:50 pm)
Low19 °F (Nov 29, 7:20 am)52% (Dec 5, 1:50 pm)29.89 "Hg (Nov 22, 12:20 pm)
Average36 °F84%30.26 "Hg
* Reported Nov 22 12:20 pm — Dec 7 12:20 pm, Alfeld (Leine), Weather by CustomWeather, © 2016

Note: Actual official high and low records may vary slightly from our data, if they occured in-between our weather recording intervals... More about our weather records

Advertising

Alfeld (Leine) Weather History for the Previous 24 Hours

Scroll right to see more
 ConditionsComfort  
Time TempWeatherWind HumidityBarometerVisibility
12:20 pm
Wed, Dec 7
37 °FSunny.7 mph75%30.42 "Hg10 mi
11:50 am36 °FSunny.6 mph81%30.42 "Hg10 mi
11:20 am36 °FSunny.7 mph75%30.42 "Hg10 mi
10:50 am34 °FSunny.6 mph81%30.45 "Hg10 mi
10:20 am32 °FSunny.6 mph87%30.45 "Hg10 mi
9:50 am30 °FSunny.6 mph86%30.45 "Hg10 mi
9:20 am30 °FSunny.3 mph86%30.45 "Hg10 mi
8:50 am28 °FSunny.2 mph93%30.45 "Hg10 mi
8:20 am27 °FSunny.2 mph93%30.45 "Hg10 mi
7:50 am25 °FClear.No wind93%30.45 "Hg10 mi
7:20 am25 °FClear.3 mph93%30.45 "Hg10 mi
6:50 am25 °FClear.3 mph93%30.45 "Hg10 mi
9:50 pm
Tue, Dec 6
28 °FClear.No wind93%30.54 "Hg10 mi
9:20 pm28 °FClear.1 mph93%30.51 "Hg10 mi
8:50 pm28 °FChilly.1 mph93%30.51 "HgN/A
8:20 pm28 °FClear.2 mph86%30.51 "Hg10 mi
7:50 pm32 °FPassing clouds.3 mph80%30.54 "HgN/A
6:50 pm32 °FOvercast.3 mph80%30.51 "HgN/A
6:20 pm34 °FOvercast.6 mph81%30.51 "HgN/A
5:50 pm34 °FPassing clouds.2 mph81%30.51 "HgN/A
5:20 pm34 °FPassing clouds.3 mph81%30.48 "HgN/A
4:50 pm34 °FOvercast.3 mph81%30.48 "HgN/A
4:20 pm34 °FOvercast.3 mph81%30.48 "HgN/A
3:50 pm34 °FPartly sunny.2 mph81%30.48 "HgN/A
3:20 pm34 °FOvercast.3 mph81%30.48 "HgN/A
2:50 pm36 °FOvercast.2 mph75%30.48 "HgN/A
2:20 pm34 °FOvercast.5 mph81%30.48 "HgN/A
1:50 pm34 °FPartly sunny.5 mph75%30.45 "HgN/A
1:20 pm34 °FOvercast.6 mph75%30.45 "HgN/A
Weather by CustomWeather, © 2016

See weather overviewHow to use our weather pages